Tracking 25703 objects as of 2-Jul-2022
HD Live streaming from Space Station
objects crossing your sky now

OKEAN O

Track OKEAN O now!
10-day predictions
OKEAN O is classified as:


NORAD ID: 25860
Int'l Code: 1999-039A
Perigee: 645.0 km
Apogee: 647.1 km
Inclination: 98.1 °
Period: 97.5 minutes
Semi major axis: 7017 km
RCS: 19.8052 m2 (large)
Launch date: July 17, 1999
Source: Commonwealth of Independent States (former USSR) (CIS)
Launch site: TYURATAM MISSILE AND SPACE COMPLEX (TTMTR)
aabbcc
Your satellite tracking list
Your tracking list is empty




NASA's NSSDC Master Catalog

Two Line Element Set (TLE):
1 25860U 99039A   22183.56304788  .00000166  00000-0  31086-4 0  9993
2 25860  98.1375 223.5560 0001514  70.8519 289.2854 14.76963837235484
Source of the keplerian elements: AFSPC